FW6665 Weather Reports


Display with metric or nautical units.
time (UTC)temp
F
wind
direction
speed
MPH
gust
MPH
rain 1hr
in
rain 24hr
in
rain mn
in
humidity
%
barometer
mb
20260903133711 78 193 4.0 16.0 0.00 0.00 0.00 59 1014.4
20260903133204 78 247 4.0 16.0 0.00 0.00 0.00 60 1014.5
20260903132704 78 231 4.0 16.0 0.00 0.00 0.00 60 1014.6
20260903132204 78 240 4.0 13.0 0.00 0.00 0.00 61 1014.5
20260903131205 78 264 3.0 13.0 0.00 0.00 0.00 61 1014.4
20260903130704 78 235 4.0 14.0 0.00 0.00 0.00 60 1014.6
20260903130209 77 254 4.0 14.0 0.00 0.00 0.00 61 1014.7
20260903125704 77 216 3.0 11.0 0.00 0.00 0.00 62 1014.7
20260903125204 76 265 2.0 11.0 0.00 0.00 0.00 63 1014.8
20260903124705 76 293 4.0 9.0 0.00 0.00 0.00 63 1014.8
20260903124205 76 250 4.0 11.0 0.00 0.00 0.00 63 1014.8
20260903123703 76 233 4.0 11.0 0.00 0.00 0.00 63 1014.9
20260903123203 76 230 3.0 12.0 0.00 0.00 0.00 63 1014.9
20260903122704 75 237 4.0 13.0 0.00 0.00 0.00 64 1015.0
20260903122204 75 230 4.0 13.0 0.00 0.00 0.00 64 1014.9
20260903121704 75 230 4.0 15.0 0.00 0.00 0.00 65 1015.0
20260903121204 75 244 6.0 15.0 0.00 0.00 0.00 65 1015.0
20260903120704 75 254 6.0 15.0 0.00 0.00 0.00 65 1014.9
20260903120205 75 254 5.0 10.0 0.00 0.00 0.00 65 1014.8
20260903115204 75 251 3.0 12.0 0.00 0.00 0.00 67 1014.8
20260903114204 75 269 4.0 10.0 0.00 0.00 0.00 67 1015.0
20260903113704 75 200 2.0 10.0 0.00 0.00 0.00 68 1015.0
20260903113204 74 197 2.0 12.0 0.00 0.00 0.00 68 1015.1
20260903112704 74 252 2.0 12.0 0.00 0.00 0.00 68 1015.0
20260903111704 74 228 4.0 9.0 0.00 0.00 0.00 68 1015.0
20260903111204 74 180 4.0 12.0 0.00 0.00 0.00 68 1015.0
20260903110704 74 281 2.0 12.0 0.00 0.00 0.00 68 1015.0
20260903110204 74 220 3.0 12.0 0.00 0.00 0.00 69 1015.1
20260903105205 73 247 4.0 14.0 0.00 0.01 0.00 69 1015.3
20260903104704 73 190 3.0 17.0 0.00 0.01 0.00 69 1015.2
20260903104204 73 265 4.0 17.0 0.00 0.01 0.00 69 1015.2
20260903103204 73 248 9.0 14.0 0.00 0.01 0.00 68 1015.2
20260903102705 73 166 2.0 14.0 0.00 0.01 0.00 69 1015.3
20260903102204 74 195 2.0 9.0 0.00 0.01 0.00 69 1015.4
20260903101703 73 244 2.0 9.0 0.00 0.01 0.00 70 1015.4
20260903101204 73 157 2.0 11.0 0.00 0.01 0.00 72 1015.3
20260903100726 72 247 3.0 11.0 0.00 0.01 0.00 72 1015.4
20260903100204 71 226 3.0 13.0 0.00 0.01 0.00 73 1015.4
20260903095704 71 168 3.0 13.0 0.00 0.01 0.00 73 1015.3
20260903095204 71 223 2.0 15.0 0.00 0.01 0.00 74 1015.6
20260903094704 71 250 4.0 15.0 0.00 0.01 0.00 73 1015.5
20260903094204 71 250 6.0 16.0 0.00 0.01 0.00 73 1015.4
20260903093204 71 234 5.0 16.0 0.00 0.01 0.00 74 1015.6
20260903092704 71 240 4.0 13.0 0.00 0.01 0.00 74 1015.6
20260903092204 70 237 5.0 13.0 0.00 0.01 0.00 75 1015.5
20260903091705 70 302 6.0 13.0 0.00 0.01 0.00 75 1015.6
20260903091204 70 223 4.0 14.0 0.00 0.01 0.00 75 1015.6
20260903090231 70 272 5.0 13.0 0.00 0.01 0.00 75 1015.4
20260903085205 70 244 3.0 15.0 0.00 0.01 0.00 76 1015.4
20260903084704 70 199 3.0 15.0 0.00 0.01 0.00 76 1015.3
20260903083704 70 245 7.0 11.0 0.00 0.01 0.00 77 1015.2
20260903083204 70 255 2.0 11.0 0.00 0.01 0.00 77 1015.1
20260903082704 69 254 4.0 9.0 0.00 0.01 0.00 77 1014.8
20260903082204 69 224 3.0 9.0 0.00 0.01 0.00 77 1014.8
20260903081704 69 259 3.0 9.0 0.00 0.01 0.00 77 1014.6
20260903081205 69 197 2.0 9.0 0.00 0.01 0.00 77 1014.6
20260903080205 69 258 3.0 7.0 0.00 0.01 0.00 77 1014.4
20260903075704 69 266 3.0 12.0 0.00 0.01 0.00 77 1014.4
20260903075205 69 131 3.0 12.0 0.00 0.01 0.00 77 1014.2
20260903074705 68 240 1.0 12.0 0.00 0.01 0.00 77 1014.2
20260903074204 68 190 2.0 9.0 0.00 0.01 0.00 77 1014.0
20260903073731 68 241 3.0 9.0 0.00 0.01 0.00 77 1014.1
20260903073204 68 272 2.0 9.0 0.00 0.01 0.00 77 1013.9
20260903072204 68 226 2.0 11.0 0.00 0.01 0.00 77 1013.8
20260903071204 68 178 2.0 11.0 0.00 0.01 0.00 77 1014.0
20260903070704 68 200 2.0 9.0 0.00 0.01 0.00 77 1014.1
20260903070209 67 224 1.0 9.0 0.00 0.01 0.00 77 1013.9
20260903065705 67 217 2.0 9.0 0.00 0.01 0.00 77 1014.0
20260903065205 67 178 2.0 10.0 0.00 0.01 0.00 77 1014.0
20260903064705 67 223 3.0 11.0 0.00 0.01 0.00 77 1014.2
20260903064204 67 241 4.0 11.0 0.00 0.01 0.00 77 1014.2
20260903063704 67 250 4.0 11.0 0.00 0.01 0.00 77 1014.3
20260903063204 67 240 3.0 9.0 0.00 0.01 0.00 77 1014.1
20260903062704 67 176 3.0 9.0 0.00 0.01 0.00 77 1014.0
20260903062204 67 248 2.0 9.0 0.00 0.01 0.00 77 1014.1
20260903061705 67 120 1.0 10.0 0.00 0.01 0.00 77 1014.0
20260903061204 67 212 1.0 10.0 0.00 0.01 0.00 76 1014.1
20260903060704 67 166 2.0 10.0 0.00 0.01 0.00 76 1014.0
20260903060204 67 110 2.0 10.0 0.00 0.01 0.00 76 1014.0
20260903055704 67 228 3.0 10.0 0.00 0.01 0.00 76 1014.0
20260903055205 67 175 2.0 6.0 0.00 0.01 0.00 76 1013.9
20260903054703 67 193 2.0 6.0 0.00 0.01 0.00 76 1013.9
20260903054204 67 204 1.0 6.0 0.00 0.01 0.00 76 1013.8
20260903053704 67 238 1.0 7.0 0.00 0.01 0.00 76 1013.7
20260903053204 67 207 2.0 7.0 0.00 0.01 0.00 76 1013.8
20260903052204 67 169 3.0 7.0 0.00 0.01 0.00 76 1013.6
20260903051704 67 203 2.0 7.0 0.00 0.01 0.00 76 1013.7
20260903051204 67 196 2.0 7.0 0.00 0.01 0.00 76 1013.6
20260903050704 67 196 4.0 7.0 0.00 0.01 0.00 76 1013.8
20260903050203 67 197 2.0 10.0 0.00 0.01 0.00 76 1013.8
20260903045714 67 102 2.0 10.0 0.00 0.01 0.00 76 1013.6
20260903045204 66 221 3.0 10.0 0.00 0.01 0.00 76 1013.7
20260903044704 66 178 2.0 7.0 0.00 0.01 0.00 76 1013.5
20260903044204 66 244 2.0 7.0 0.00 0.01 0.00 75 1013.4
20260903043704 66 240 1.0 7.0 0.00 0.01 0.00 75 1013.6
20260903043204 66 190 1.0 6.0 0.00 0.01 0.00 75 1013.5
20260903042704 66 199 2.0 6.0 0.00 0.01 0.00 75 1013.6
20260903042204 66 217 1.0 6.0 0.00 0.01 0.00 75 1013.6
20260903041704 66 190 2.0 6.0 0.00 0.01 0.00 75 1013.6
20260903040729 67 237 2.0 7.0 0.00 0.01 0.00 75 1013.7
20260903040204 67 204 1.0 5.0 0.00 0.01 0.00 75 1013.8
20260903035704 67 231 2.0 6.0 0.00 0.01 0.00 75 1013.7
20260903035204 67 196 2.0 9.0 0.00 0.01 0.00 75 1013.7
20260903034704 67 247 2.0 9.0 0.00 0.01 0.00 75 1013.6
20260903034205 67 180 2.0 9.0 0.00 0.01 0.00 75 1013.4
20260903033704 67 254 3.0 7.0 0.00 0.01 0.00 75 1013.5
20260903033204 66 157 2.0 10.0 0.00 0.01 0.00 75 1013.5
20260903032205 66 179 2.0 10.0 0.00 0.01 0.00 75 1013.7
20260903031204 66 199 2.0 7.0 0.00 0.01 0.00 75 1013.6
20260903030704 66 197 3.0 6.0 0.00 0.01 0.00 75 1013.6
20260903023704 66 220 2.0 7.0 0.00 0.01 0.00 76 1013.6
20260903023214 66 189 1.0 7.0 0.00 0.01 0.00 76 1013.7
20260903022204 66 178 2.0 6.0 0.00 0.01 0.00 75 1013.7
20260903021704 66 164 1.0 5.0 0.00 0.01 0.00 75 1013.7
20260903015705 66 162 0.0 9.0 0.00 0.01 0.00 75 1013.7
20260903015204 66 180 2.0 9.0 0.00 0.01 0.00 75 1013.7
20260903014704 66 196 0.0 9.0 0.00 0.01 0.00 75 1013.8
20260903014204 66 189 2.0 7.0 0.00 0.01 0.00 75 1013.8
20260903013704 66 164 2.0 7.0 0.00 0.01 0.00 75 1013.7
20260903013204 66 197 2.0 7.0 0.00 0.01 0.00 75 1013.9
20260903012205 66 185 2.0 5.0 0.00 0.01 0.00 75 1013.8
20260903011705 66 196 2.0 10.0 0.00 0.01 0.00 75 1013.8
20260903011205 66 183 1.0 10.0 0.00 0.01 0.00 75 1013.8
20260903010703 66 203 2.0 5.0 0.00 0.01 0.00 75 1013.7
20260903005704 66 162 2.0 6.0 0.00 0.01 0.00 75 1014.1
20260903005204 66 190 2.0 6.0 0.00 0.01 0.00 75 1014.2
20260903004704 66 188 2.0 10.0 0.00 0.01 0.00 75 1014.3
20260903004204 66 203 1.0 10.0 0.00 0.01 0.00 75 1014.2
20260903002704 66 179 2.0 10.0 0.00 0.01 0.00 75 1014.1
20260903001704 66 185 2.0 10.0 0.00 0.01 0.00 75 1014.3
20260903001204 66 212 3.0 6.0 0.00 0.01 0.00 75 1014.2
20260903000704 66 203 1.0 9.0 0.00 0.01 0.00 75 1014.3
20260903000204 66 272 2.0 9.0 0.00 0.01 0.00 75 1014.3
20260902235704 66 195 2.0 9.0 0.00 0.01 0.00 75 1014.2
20260902235207 66 228 2.0 6.0 0.00 0.01 0.00 75 1014.1
20260902234704 66 178 3.0 6.0 0.00 0.01 0.00 75 1014.3
20260902234203 66 258 1.0 6.0 0.00 0.01 0.00 75 1014.3
20260902233704 66 199 2.0 6.0 0.00 0.01 0.00 75 1014.3
20260902233204 66 255 2.0 5.0 0.00 0.01 0.00 75 1014.3
20260902232703 66 228 2.0 5.0 0.00 0.01 0.00 75 1014.3
20260902232204 66 161 2.0 7.0 0.00 0.01 0.00 75 1014.4
20260902231204 66 175 2.0 7.0 0.00 0.01 0.00 75 1014.4
20260902230730 67 180 2.0 7.0 0.00 0.01 0.00 75 1014.6
20260902230204 67 124 2.0 7.0 0.00 0.01 0.01 75 1014.6
20260902225704 67 243 2.0 7.0 0.00 0.01 0.01 75 1014.6
20260902225204 67 197 2.0 6.0 0.00 0.01 0.01 75 1014.6
20260902224704 67 234 3.0 7.0 0.00 0.01 0.01 75 1014.7
20260902224204 67 235 2.0 13.0 0.00 0.01 0.01 75 1014.7
20260902223705 67 193 2.0 13.0 0.00 0.01 0.01 75 1014.5
20260902223203 67 255 3.0 9.0 0.00 0.01 0.01 75 1014.5
20260902222704 67 217 2.0 9.0 0.00 0.01 0.01 75 1014.3
20260902222205 67 185 1.0 9.0 0.00 0.01 0.01 75 1014.2
20260902220704 67 168 3.0 13.0 0.00 0.01 0.01 75 1014.2
20260902215204 67 189 1.0 11.0 0.00 0.01 0.01 75 1014.0
20260902214705 67 217 2.0 11.0 0.00 0.01 0.01 75 1014.3
20260902214204 67 207 2.0 10.0 0.00 0.01 0.01 75 1014.2
20260902213704 67 216 2.0 10.0 0.00 0.01 0.01 75 1014.3
20260902213204 67 203 3.0 7.0 0.00 0.01 0.01 75 1014.2
20260902212704 67 197 2.0 9.0 0.00 0.01 0.01 75 1014.3
20260902212205 67 195 2.0 9.0 0.00 0.01 0.01 75 1014.3
20260902211704 67 264 2.0 7.0 0.00 0.01 0.01 75 1014.5
20260902211204 67 240 3.0 7.0 0.00 0.01 0.01 74 1014.5
20260902210704 67 219 2.0 7.0 0.00 0.01 0.01 74 1014.4
20260902210204 67 183 3.0 7.0 0.00 0.01 0.01 74 1014.5
20260902205704 67 228 3.0 10.0 0.00 0.01 0.01 74 1014.4
20260902205204 67 175 2.0 10.0 0.00 0.01 0.01 73 1014.3
20260902204724 67 241 2.0 5.0 0.00 0.01 0.01 73 1014.3
20260902204204 67 261 2.0 4.0 0.00 0.01 0.01 72 1014.2
20260902203707 67 213 1.0 6.0 0.00 0.01 0.01 72 1014.2
20260902203204 67 186 0.0 6.0 0.00 0.01 0.01 71 1014.2
20260902202704 66 176 2.0 4.0 0.00 0.01 0.01 71 1014.3
20260902202209 67 107 1.0 4.0 0.00 0.01 0.01 71 1014.4
20260902201704 66 173 2.0 6.0 0.00 0.01 0.01 71 1014.4
20260902201204 66 189 1.0 6.0 0.00 0.01 0.01 71 1014.5
20260902200704 66 200 2.0 6.0 0.00 0.01 0.01 71 1014.4
20260902195705 67 125 2.0 6.0 0.00 0.01 0.01 72 1014.4
20260902195204 67 173 2.0 6.0 0.00 0.01 0.01 72 1014.6
20260902194704 67 189 2.0 6.0 0.00 0.01 0.01 72 1014.6
20260902193704 67 176 2.0 6.0 0.00 0.01 0.01 73 1014.7
20260902193204 66 210 1.0 6.0 0.00 0.01 0.01 73 1014.7
20260902192704 66 248 2.0 5.0 0.00 0.01 0.01 73 1014.4
20260902192206 66 169 1.0 6.0 0.00 0.01 0.01 73 1014.3
20260902191704 66 180 2.0 6.0 0.00 0.01 0.01 73 1014.3
20260902191204 66 213 2.0 6.0 0.00 0.01 0.01 73 1014.3
20260902190704 66 214 2.0 6.0 0.00 0.01 0.01 74 1014.2
20260902185704 66 178 2.0 10.0 0.00 0.01 0.01 74 1014.3
20260902185205 66 196 2.0 10.0 0.00 0.01 0.01 74 1014.4
20260902184204 66 176 2.0 7.0 0.00 0.01 0.01 74 1014.4
20260902183704 66 219 2.0 7.0 0.00 0.01 0.01 75 1014.5
20260902183204 66 183 3.0 9.0 0.00 0.01 0.01 75 1014.4
20260902182704 66 204 2.0 9.0 0.00 0.01 0.01 75 1014.4
20260902182204 66 162 2.0 9.0 0.00 0.01 0.01 76 1014.4
20260902181704 66 161 1.0 11.0 0.00 0.01 0.01 76 1014.5
20260902181205 66 113 2.0 11.0 0.00 0.01 0.01 76 1014.5
20260902180204 66 192 2.0 10.0 0.00 0.01 0.01 76 1014.7
20260902175204 66 121 2.0 10.0 0.00 0.01 0.01 77 1014.8
20260902174705 67 168 2.0 7.0 0.00 0.01 0.01 77 1014.9
20260902174204 67 147 3.0 7.0 0.00 0.01 0.01 77 1014.7
20260902173704 67 188 2.0 7.0 0.00 0.01 0.01 77 1014.8
20260902173204 67 166 2.0 14.0 0.00 0.01 0.01 77 1014.8
20260902172705 67 173 3.0 14.0 0.00 0.01 0.01 76 1014.8
20260902172204 67 172 2.0 14.0 0.00 0.01 0.01 76 1014.8
20260902171704 67 154 5.0 12.0 0.00 0.01 0.01 76 1014.8
20260902171203 67 169 3.0 12.0 0.00 0.01 0.01 76 1014.6
20260902170704 67 133 2.0 10.0 0.00 0.01 0.01 75 1014.7
20260902170205 67 151 3.0 10.0 0.00 0.01 0.01 75 1014.8
20260902165705 68 200 2.0 10.0 0.00 0.01 0.01 74 1014.8
20260902165204 68 261 3.0 10.0 0.00 0.01 0.01 74 1014.8
20260902164728 68 0 4.0 5.0 0.00 0.01 0.01 73 1014.9
20260902164204 68 164 2.0 9.0 0.00 0.01 0.01 73 1015.0
20260902163704 69 159 2.0 12.0 0.00 0.01 0.01 73 1014.9
20260902162705 69 195 3.0 11.0 0.00 0.01 0.01 72 1015.2
20260902160705 70 206 3.0 10.0 0.00 0.01 0.01 67 1015.1
20260902160203 70 149 5.0 12.0 0.00 0.01 0.01 66 1015.0
20260902155704 70 223 3.0 12.0 0.00 0.01 0.01 67 1015.2
20260902155204 70 123 1.0 11.0 0.00 0.01 0.01 67 1015.3
20260902154704 69 183 3.0 11.0 0.00 0.01 0.01 67 1015.4
20260902154205 70 240 2.0 11.0 0.00 0.01 0.01 67 1015.3
20260902153704 70 172 5.0 11.0 0.00 0.01 0.01 66 1015.4
20260902153204 69 159 3.0 11.0 0.00 0.01 0.01 67 1015.5
20260902152205 69 147 3.0 10.0 0.00 0.01 0.01 66 1015.5
20260902151705 70 131 3.0 10.0 0.00 0.01 0.01 66 1015.6
20260902151205 70 165 3.0 11.0 0.00 0.01 0.01 67 1015.5
20260902150705 69 71 2.0 11.0 0.00 0.01 0.01 67 1015.6
20260902150204 69 175 3.0 12.0 0.00 0.01 0.01 66 1015.8
20260902145707 69 188 3.0 12.0 0.00 0.01 0.01 66 1015.8
20260902145211 69 204 3.0 12.0 0.00 0.01 0.01 66 1015.8
20260902144704 69 141 4.0 11.0 0.00 0.01 0.01 65 1015.8
20260902144205 69 182 2.0 11.0 0.00 0.01 0.01 65 1015.8
20260902143704 69 130 3.0 11.0 0.00 0.01 0.01 65 1015.9
20260902143206 69 234 3.0 13.0 0.00 0.01 0.01 64 1015.9
20260902142705 70 217 4.0 13.0 0.00 0.01 0.01 64 1015.9
20260902142206 70 240 3.0 13.0 0.00 0.01 0.01 64 1016.0
20260902141704 70 230 3.0 13.0 0.00 0.01 0.01 64 1016.0
20260902141204 69 240 2.0 13.0 0.00 0.01 0.01 64 1016.1
20260902140704 69 279 4.0 11.0 0.00 0.01 0.01 64 1016.1
20260902140211 69 168 3.0 11.0 0.00 0.01 0.01 65 1016.1
20260902135706 69 237 2.0 11.0 0.00 0.01 0.01 65 1016.1
20260902135205 69 204 4.0 11.0 0.00 0.01 0.01 65 1016.2
20260902134704 69 176 3.0 11.0 0.00 0.01 0.01 65 1016.2